Vertical_Velocity
-4 -2 -1 0 0 -1 -1 -3 -2 -0 -3 -2 -4 -2 -4 -2 -1 -2 -0 -6 -2 0 7 2 -5 2 1 -2 2 1 -0 -1 -1 25 -0 3 6 2 -2 2 2 -1 0 -1 3 1 -2
-3 -1 -0 -0 -0 -2 -1 -2 -2 -0 -2 -2 -2 -3 -5 -2 -2 -2 -3 -3 -1 0 3 1 2 -3 -1 -4 1 2 5 -0 0 6 -8 5 12 0 4 7 3 1 -0 -2 3 1 -2
-2 -1 -2 -1 -1 0 -1 -1 0 -2 -1 -3 -1 -3 -3 -3 -4 0 -2 -2 -2 -3 -1 -4 0 0 -1 -0 -0 -1 1 1 2 -4 1 6 -1 8 4 5 4 1 -0 3 5 1 -0
-0 0 0 -1 -2 -1 1 1 -1 -1 -1 -2 -2 -4 -4 -2 -2 -1 -3 -3 -4 -1 2 -10 -0 -1 -2 -0 1 -1 7 3 1 8 -9 14 8 2 1 5 5 2 1 3 4 2 1
-2 -1 -1 -0 -2 -2 -1 1 1 -1 -1 -1 -1 -1 -4 -4 -2 -1 -3 -5 -3 4 11 -10 -1 -1 1 4 10 -2 2 -6 11 4 -2 9 -1 1 3 4 -2 4 -4 2 1 0 1
-2 -1 -2 -2 -0 -1 -1 0 1 -0 -1 -0 -0 0 -2 -4 -4 -4 -5 -6 5 2 2 -2 -1 5 6 -1 -6 6 -3 5 17 -3 14 -3 2 -1 3 3 -9 -6 -0 -1 -1 -3 -2
-1 -0 -2 -2 -1 -1 -1 -1 1 1 0 -1 0 0 -2 -3 -0 -3 -4 -2 0 5 -6 2 -1 0 2 14 -4 2 13 6 -21 -10 -2 7 -4 0 -5 1 3 -0 -5 -2 -2 -4 -3
-1 -1 -1 -1 -1 -2 -1 -2 -1 1 2 1 1 -0 -1 -1 -1 0 -2 -8 -12 1 -5 8 1 3 -7 3 1 3 -20 -23 15 9 8 -0 -2 0 -2 -1 4 3 2 -0 1 -0 1
-1 -1 -0 -0 -1 -1 -2 -0 -4 -2 0 2 -1 1 -1 -0 -3 -2 -0 -3 -2 -3 -2 -4 1 2 4 20 10 -18 5 4 10 3 0 -4 -0 5 3 -3 2 -0 5 -2 -2 -1 -0
-1 -1 -1 0 -0 -2 -2 -0 -1 -1 -2 1 2 1 1 -0 2 -3 -3 -0 -2 -0 -5 -0 -7 0 0 -2 1 11 7 6 -6 1 4 -0 4 -2 2 1 3 1 1 0 1 2 -1
-1 -1 -1 0 0 -0 -0 -1 -0 -2 0 -1 0 2 2 1 1 -0 -0 2 -0 -2 -8 -5 -2 -1 -0 -1 -1 -2 1 -0 -0 -3 -2 1 2 -2 -0 1 3 -3 -1 1 1 1 0
-1 0 -0 0 1 0 -1 0 1 -0 -2 -1 -0 -0 1 -0 0 -0 -1 1 1 -2 -7 -2 -1 -2 -0 0 -0 3 5 3 3 3 5 -6 1 3 0 -1 -0 -1 -0 -0 -0 -0 -3
-1 -1 -1 1 1 1 1 1 2 2 1 -1 -2 -0 -0 -1 -1 1 0 -1 -1 -7 -2 -2 -1 -1 -0 -1 -1 -0 3 2 -1 -3 2 1 -3 -0 1 0 1 -2 1 -1 -5 -3 -6
-1 -1 -1 -0 1 -0 0 1 1 1 1 1 -1 -1 -0 1 1 -0 1 -1 -6 -1 -2 -0 -1 1 -3 -1 -1 1 1 1 1 3 -1 -1 1 0 1 -0 -2 -2 0 -1 -5 -3 -4
-1 -0 -1 -1 0 0 -1 -1 1 0 0 0 -1 -1 2 2 -1 1 -0 -2 -0 -1 -1 -2 2 -1 -1 -0 -2 -2 0 0 3 1 1 -2 -0 -1 -2 -0 -2 -2 -2 -1 -2 0 -2
-2 -1 -1 -1 -0 0 0 -0 -2 1 1 1 1 -0 -1 1 1 -0 -1 -5 -3 -1 -0 1 -1 0 1 -1 -1 -1 -1 -2 -2 2 2 1 -2 -0 -1 -0 -0 -1 -1 -2 -1 -4 -2
-1 -1 -1 -0 -0 0 0 -0 0 -1 -0 0 1 1 1 0 -2 -1 -1 -4 -2 -1 -2 -1 -1 -0 1 -1 2 0 -4 -0 -2 -4 -3 1 0 -1 2 1 2 0 -2 -2 -2 -1 -5
-1 -1 -1 -0 -1 -1 0 -0 1 1 1 -1 -1 -1 -0 1 -1 -2 -3 -0 -0 -3 1 -1 -1 -1 -2 1 2 1 2 2 1 1 1 -0 0 -2 -3 -2 -1 0 -1 2 1 -1 1
-3 -1 -2 -1 0 -2 -2 -0 -0 -2 -0 1 -0 -0 -0 -1 1 -1 -3 -4 -5 -2 -2 -4 1 0 -2 -2 -3 -0 2 0 -0 -0 1 1 0 0 1 1 0 -1 -1 1 -0 1 -3
0 1 -1 -3 -2 -2 -0 -1 -1 -1 -1 -2 1 0 0 2 0 1 0 -1 1 -2 -2 -3 -6 -7 -1 0 -1 -1 -1 1 0 1 1 1 -2 -2 -3 -1 -2 -3 -1 1 3 2 -2
-0 -1 2 1 -2 -1 -2 -2 1 -0 -3 -3 -1 -2 -2 -2 1 2 3 2 2 0 0 -0 0 -2 -8 -9 -3 -1 -1 -1 -1 -0 -1 -2 -4 -2 1 1 -1 -1 1 2 -4 -1 -8
-3 -5 -5 -1 -0 -2 -1 2 0 0 -1 -1 -2 1 2 1 1 0 0 2 3 4 0 1 2 1 3 3 -5 -13 -11 -6 -4 -2 2 3 -1 -1 -3 -1 -2 -8 -1 2 0 -0 -6
1 2 0 -2 -3 -1 -4 -4 -3 -0 -0 -1 -2 -2 -2 1 -0 -0 3 4 2 3 3 3 0 1 4 3 -1 3 11 12 -1 -15 -12 -7 -1 1 -0 1 1 -4 3 3 4 4 8
2 1 0 -1 -1 -1 -1 1 -2 -2 -0 2 -0 -3 -0 -5 -3 -0 -1 -5 -2 -2 -2 0 3 4 7 7 0 0 -2 -2 -0 8 17 2 -6 -8 -10 -6 -6 -1 -0 1 -0 2 -0
-0 3 2 0 -0 -1 -2 0 -2 -1 1 0 0 -0 -2 -2 4 2 -0 4 -1 -3 -3 0 -2 -2 -1 -5 1 5 1 0 -8 -5 3 9 8 4 3 0 -6 3 -4 -6 -8 -6 -6
1 -0 2 1 -0 -2 -2 1 -1 -1 -1 -1 2 2 0 -1 -5 -2 -2 0 -2 1 4 2 -2 -3 -4 -2 -0 -0 1 3 1 1 -1 -7 -7 5 2 0 -1 7 6 5 4 -2 2
1 3 -1 1 1 -2 -4 -1 -0 -1 2 -1 -2 2 1 -1 -2 -2 2 0 -1 2 -1 -1 2 1 5 1 -3 -2 -2 -1 1 2 1 -0 -2 -7 -2 -4 -7 5 2 -1 -1 3 1
-0 -2 3 1 2 -1 1 -2 -4 -1 -2 2 0 -3 2 -2 1 -3 -1 2 1 0 0 -0 2 -2 -1 1 1 1 2 3 -1 -1 0 3 0 -1 4 -0 -10 -4 -1 3 -1 -4 3
-0 -0 -0 2 -1 1 1 1 1 -3 -2 -2 -3 4 -0 1 -0 2 -1 -2 -3 0 2 -4 -0 2 2 1 1 1 -0 -2 1 -1 3 -6 -1 1 -5 1 1 0 -4 -0 1 -0 -3
Height
3145 3141 3137 3133 3128 3124 3119 3114 3110 3106 3101 3096 3090 3082 3076 3069 3064 3059 3055 3050 3045 3041 3038 3038 3037 3038 3041 3042 3042 3043 3047 3049 3054 3054 3058 3068 3074 3081 3087 3094 3099 3105 3108 3113 3119 3124 3129
3147 3143 3138 3135 3130 3125 3120 3115 3110 3106 3102 3097 3091 3086 3079 3073 3066 3062 3058 3054 3051 3047 3044 3042 3043 3043 3042 3044 3044 3045 3048 3051 3056 3060 3064 3071 3078 3083 3091 3096 3101 3105 3110 3114 3118 3123 3129
3148 3144 3141 3137 3132 3126 3120 3116 3111 3106 3102 3098 3093 3088 3082 3076 3070 3065 3062 3058 3055 3052 3048 3045 3044 3043 3044 3046 3045 3048 3050 3053 3057 3063 3069 3074 3079 3087 3092 3096 3102 3106 3112 3115 3119 3123 3128
3149 3146 3142 3138 3133 3128 3122 3117 3112 3107 3103 3098 3094 3090 3086 3080 3075 3070 3066 3063 3059 3055 3052 3047 3045 3042 3046 3047 3047 3049 3051 3053 3057 3064 3070 3079 3083 3087 3094 3098 3102 3107 3112 3115 3118 3122 3126
3150 3147 3143 3139 3135 3129 3124 3118 3113 3108 3103 3099 3095 3091 3088 3084 3079 3075 3071 3067 3064 3061 3060 3053 3049 3049 3050 3050 3051 3051 3054 3056 3058 3064 3076 3079 3083 3090 3096 3099 3103 3106 3109 3114 3118 3122 3126
3151 3147 3144 3141 3136 3131 3126 3120 3115 3110 3104 3100 3096 3093 3089 3086 3083 3080 3075 3072 3069 3064 3063 3059 3054 3058 3056 3056 3055 3057 3056 3058 3060 3068 3074 3080 3086 3091 3096 3100 3102 3106 3111 3115 3118 3124 3126
3152 3148 3145 3141 3138 3133 3128 3122 3117 3112 3107 3101 3097 3093 3091 3089 3086 3083 3082 3078 3078 3074 3068 3068 3067 3065 3062 3064 3063 3062 3063 3066 3067 3072 3080 3084 3089 3093 3098 3102 3107 3109 3113 3117 3120 3124 3127
3153 3150 3146 3143 3139 3134 3130 3125 3120 3114 3110 3105 3099 3095 3093 3092 3090 3088 3086 3082 3079 3080 3077 3076 3075 3073 3072 3072 3073 3071 3071 3072 3075 3079 3084 3088 3091 3095 3099 3104 3108 3111 3114 3117 3120 3123 3126
3154 3151 3147 3144 3140 3136 3132 3127 3123 3117 3112 3108 3102 3098 3094 3093 3092 3091 3089 3087 3085 3085 3083 3083 3081 3081 3080 3082 3081 3080 3079 3081 3083 3085 3089 3090 3095 3098 3102 3105 3110 3112 3115 3117 3120 3123 3126
3155 3152 3149 3145 3141 3137 3133 3129 3125 3120 3115 3110 3105 3100 3097 3094 3094 3092 3091 3090 3089 3088 3088 3090 3087 3087 3086 3084 3085 3085 3087 3089 3088 3090 3092 3095 3097 3100 3103 3106 3111 3112 3115 3118 3120 3123 3124
3155 3153 3150 3146 3142 3139 3134 3131 3127 3123 3118 3113 3108 3103 3098 3094 3094 3093 3093 3090 3090 3090 3093 3095 3091 3090 3088 3088 3089 3089 3089 3090 3091 3093 3097 3100 3101 3103 3105 3108 3111 3113 3116 3119 3121 3122 3123
3154 3152 3150 3147 3144 3140 3136 3132 3128 3124 3120 3116 3111 3106 3101 3097 3094 3093 3092 3091 3092 3093 3095 3097 3095 3093 3093 3091 3091 3091 3092 3094 3094 3097 3098 3101 3104 3106 3107 3110 3113 3115 3119 3121 3122 3123 3124
3153 3151 3149 3147 3144 3141 3138 3134 3129 3125 3121 3117 3114 3109 3104 3100 3098 3094 3092 3092 3093 3092 3100 3099 3097 3096 3096 3096 3095 3095 3095 3096 3096 3100 3101 3104 3108 3108 3110 3113 3115 3118 3120 3122 3127 3128 3125
3152 3150 3148 3146 3144 3141 3138 3134 3131 3127 3123 3119 3115 3111 3107 3103 3099 3097 3094 3094 3093 3098 3098 3099 3099 3098 3098 3098 3098 3097 3097 3098 3099 3099 3102 3105 3111 3110 3111 3114 3116 3119 3120 3120 3126 3127 3122
3150 3148 3147 3145 3143 3141 3138 3135 3132 3128 3125 3121 3117 3113 3110 3106 3102 3100 3098 3096 3098 3100 3101 3101 3101 3101 3100 3099 3100 3100 3100 3100 3100 3102 3104 3105 3108 3110 3112 3114 3118 3118 3119 3121 3120 3122 3122
3148 3147 3145 3143 3141 3139 3138 3135 3132 3129 3126 3122 3119 3116 3112 3108 3105 3103 3102 3099 3100 3101 3102 3102 3102 3102 3102 3102 3102 3101 3102 3103 3103 3103 3104 3105 3108 3109 3112 3114 3116 3116 3119 3121 3120 3125 3126
3145 3145 3143 3141 3140 3138 3136 3135 3132 3130 3127 3124 3120 3117 3114 3110 3108 3106 3104 3103 3102 3103 3103 3104 3103 3103 3103 3103 3103 3103 3104 3105 3106 3106 3106 3106 3108 3111 3111 3112 3113 3115 3116 3118 3119 3120 3119
3142 3141 3141 3139 3137 3136 3134 3133 3132 3129 3127 3125 3121 3118 3115 3112 3111 3107 3105 3104 3105 3104 3104 3104 3104 3104 3104 3103 3103 3104 3104 3105 3105 3106 3107 3108 3108 3109 3111 3111 3111 3112 3113 3115 3117 3117 3115
3139 3138 3137 3136 3135 3134 3132 3131 3130 3128 3126 3124 3121 3118 3116 3113 3111 3108 3106 3105 3104 3105 3105 3105 3104 3105 3105 3105 3105 3104 3104 3105 3105 3106 3106 3107 3107 3108 3109 3112 3110 3110 3111 3113 3114 3114 3112
3134 3133 3133 3133 3132 3131 3130 3129 3127 3126 3124 3123 3121 3118 3116 3114 3112 3110 3107 3106 3104 3104 3103 3104 3105 3105 3105 3106 3106 3106 3105 3106 3106 3106 3106 3107 3107 3108 3109 3109 3108 3108 3108 3109 3110 3110 3106
3128 3128 3128 3127 3127 3127 3127 3126 3125 3124 3123 3122 3121 3119 3117 3114 3112 3111 3109 3107 3105 3104 3104 3103 3103 3103 3104 3105 3105 3105 3105 3105 3105 3105 3106 3107 3106 3106 3106 3106 3105 3104 3105 3105 3103 3103 3102
3122 3122 3123 3123 3123 3122 3122 3122 3121 3121 3120 3120 3118 3117 3116 3114 3112 3111 3110 3108 3107 3105 3105 3104 3103 3103 3102 3102 3101 3102 3104 3104 3104 3104 3104 3104 3104 3102 3102 3102 3101 3098 3098 3097 3096 3095 3092
3115 3115 3116 3116 3117 3118 3118 3118 3117 3117 3117 3116 3116 3115 3114 3113 3112 3111 3110 3109 3107 3106 3106 3104 3103 3102 3102 3102 3101 3100 3100 3100 3100 3101 3102 3104 3103 3102 3099 3098 3096 3092 3088 3088 3087 3087 3088
3107 3108 3108 3109 3110 3111 3112 3112 3112 3113 3113 3113 3112 3112 3111 3110 3110 3109 3108 3108 3107 3106 3106 3105 3104 3103 3103 3100 3099 3098 3097 3096 3096 3097 3097 3095 3096 3099 3098 3098 3099 3088 3086 3086 3085 3085 3084
3101 3101 3102 3103 3104 3104 3105 3106 3106 3107 3108 3108 3108 3108 3107 3106 3106 3106 3105 3104 3103 3103 3103 3103 3102 3102 3101 3101 3100 3096 3092 3091 3092 3092 3093 3095 3096 3095 3092 3089 3086 3082 3081 3083 3081 3082 3080
3095 3096 3096 3097 3097 3097 3098 3100 3100 3101 3102 3102 3103 3103 3103 3102 3102 3102 3101 3101 3100 3100 3099 3098 3098 3098 3098 3098 3098 3097 3094 3091 3088 3086 3087 3089 3094 3099 3094 3093 3086 3081 3081 3080 3078 3076 3076
3087 3089 3090 3091 3091 3092 3092 3093 3094 3094 3095 3096 3096 3097 3097 3097 3097 3097 3097 3096 3096 3096 3095 3095 3095 3095 3094 3092 3092 3093 3091 3091 3089 3085 3083 3084 3086 3087 3091 3092 3083 3079 3078 3078 3080 3082 3076
3078 3080 3082 3083 3085 3085 3086 3087 3088 3089 3089 3090 3091 3091 3091 3091 3091 3091 3091 3091 3090 3090 3091 3092 3092 3090 3089 3090 3090 3088 3086 3085 3084 3083 3082 3084 3083 3082 3082 3084 3079 3077 3077 3079 3077 3073 3072
3067 3070 3072 3073 3075 3077 3078 3080 3081 3083 3084 3084 3085 3085 3084 3085 3086 3084 3084 3084 3085 3084 3085 3083 3086 3085 3085 3085 3085 3083 3083 3082 3081 3080 3078 3081 3081 3080 3080 3076 3073 3073 3072 3071 3068 3066 3064